Címlap Időjárás Ferihegy, Budapest Airport időjárás előrejelzés – METAR, TAF BUD/LHBP

Időjárás Ferihegy, Budapest Airport időjárás előrejelzés – METAR, TAF BUD/LHBP

Aktuális szöveges időjárásjelentés / METAR BUD/LHBP, és 24 órás szöveges időjárás-előrejelzés / TAF BUD/LHBP Budapest Liszt Ferenc Nemzetközi Repülőtér

Available data for LHBP from the past 6 hours
Metar
LHBP 222030Z 30018KT 9999 SCT018 14/13 Q1011 NOSIG

20:30 UTC

Wind: 300° 18kt

Visibility: 9999 m

Sky: SCT 1800 ft

Temp: 14 deg C / 57.2 deg F

Dewpoint: 13 deg C / 55.4 deg F

Pressure: 1011 hPa

TAF
TAF LHBP 221715Z 2218/2318 28012KT 9999 BKN025 TEMPO 2218/2220 27015G25KT -RA BKN014 OVC020 TEMPO 2220/2302 OVC014 TEMPO 2305/2315 30015G25KT -SHRA SCT020 BKN055 BECMG 2315/2318 CAVOK

Szélirány és erősség Ferihegy és környéke

Európa műholdkép


6 napos időjárás előrejelzés – Budapest Ferihegy Airport


Data is taken from the National Weather Service at NOAA. Satelite image by AustroControl & Meteo-Mc. Only for spotters, do not use for real flight!

A METAR és a TAF adatok a National Weather Service adatbázisából származnak. Az oldalon közölt adatok tájékoztató jellegűek, az oldal üzemeltetője nem vállal felelősséget ezek esetleges pontatlanságáért. Ne használd valós repüléshez!

Néhány hasznos infó, mielőtt repülőre szállsz